Theta_e
293 294 294 294 293 294 295 295 296 296 296 296 297 298 298 298 298 299 296 298 297 297 297 298 298 298 298 297 297 298 298 298 298 299 300 301 302 302 302 301 301 301 301 299 299 299 299 299 299 299 299 298 298 297 297 297 296 295 295 295 294 294 293 293 292 292 292 284 287 285 286 286 285 285 285 285 285 285 286 285 285 285 285 285 288
293 293 293 293 293 294 293 293 293 293 293 294 294 295 295 296 296 294 295 297 295 297 297 297 297 296 296 297 296 296 297 298 298 297 298 298 299 300 300 298 298 298 298 298 298 298 298 298 298 298 298 298 297 297 297 296 295 294 294 294 294 293 293 292 292 292 292 287 285 285 285 285 284 286 284 284 283 283 283 283 284 284 284 284 286
292 292 292 292 292 291 291 291 290 290 290 292 292 293 293 292 292 293 294 294 293 294 295 295 294 294 295 295 296 295 296 295 295 295 296 296 297 297 299 298 297 297 297 297 298 297 296 296 296 297 297 296 296 296 296 295 295 294 294 294 293 294 294 293 292 291 291 292 286 283 283 284 284 284 284 284 283 283 282 282 283 283 284 284 285
290 291 291 291 290 290 291 291 290 291 291 292 291 291 291 291 291 291 292 292 293 293 292 293 293 293 293 294 294 294 294 294 294 294 295 295 296 296 296 296 297 296 297 297 297 297 297 296 296 296 295 295 295 295 295 295 294 294 293 293 293 293 293 293 292 292 292 292 286 285 284 283 284 284 284 284 283 282 282 282 283 282 282 283 283
290 290 290 291 291 291 291 291 291 291 291 291 291 291 291 291 290 291 291 291 292 292 292 291 292 292 293 293 294 294 294 294 294 294 294 295 295 295 296 296 296 296 296 297 294 296 296 296 297 296 296 294 295 295 295 294 294 293 293 293 293 293 292 292 291 291 291 290 288 284 284 284 284 284 284 282 282 282 282 281 281 282 282 282 283
289 290 290 291 291 291 291 291 291 290 290 290 290 290 290 290 290 290 290 291 291 291 291 291 291 292 293 293 293 293 294 294 294 294 295 294 294 294 294 295 295 295 295 296 296 295 295 296 296 296 295 294 295 295 294 294 294 293 292 292 293 292 291 291 291 290 290 290 289 282 283 282 282 282 283 282 281 279 280 280 281 281 281 280 281
289 289 289 290 290 290 290 290 290 290 290 290 290 290 290 290 289 290 290 289 290 291 291 291 291 291 292 292 292 293 293 293 293 294 294 294 294 294 294 294 294 294 295 295 296 296 295 296 296 295 295 295 294 294 294 293 293 292 292 292 292 291 291 290 290 289 289 288 287 284 282 282 282 281 282 282 281 280 279 278 278 280 280 280 279
288 289 289 289 289 289 289 289 289 289 289 289 289 289 289 290 290 290 289 289 289 290 290 291 291 291 291 291 292 292 292 292 293 293 293 293 293 293 293 293 293 294 294 294 294 295 295 295 295 295 295 295 295 294 294 293 293 292 292 292 291 290 290 289 288 288 287 287 286 283 282 281 281 281 281 280 279 279 280 279 277 277 278 280 281
288 288 288 289 289 289 289 289 289 288 288 289 289 289 289 289 289 288 288 289 289 289 289 290 290 290 290 290 290 291 291 292 293 293 293 293 293 293 293 293 293 293 293 293 294 294 294 294 294 294 294 291 291 292 293 293 293 292 292 291 290 290 289 289 288 287 287 286 285 283 281 280 279 278 278 278 278 278 280 281 279 279 279 279 280
287 287 288 288 288 288 288 288 288 288 288 288 288 288 288 288 288 288 288 288 288 288 288 289 289 289 289 290 290 290 291 292 290 291 292 293 293 293 293 293 292 292 292 292 292 293 293 294 294 290 289 289 289 290 292 292 292 293 293 291 290 289 288 288 287 287 287 286 285 282 280 280 279 279 278 279 280 281 280 281 279 279 279 279 278
287 287 288 288 287 287 287 287 287 287 288 287 287 287 288 288 287 287 288 288 288 288 288 288 289 289 289 289 290 290 291 291 290 292 293 294 293 293 292 293 292 292 292 292 292 292 292 293 293 291 289 288 289 289 291 291 291 291 292 291 291 290 288 288 287 287 286 286 285 282 282 280 279 279 279 280 281 280 280 281 280 279 278 277 276
286 287 287 287 287 287 287 287 287 287 287 287 287 287 286 286 287 287 287 287 288 288 287 288 288 289 289 289 289 289 290 290 292 292 293 293 293 293 293 292 292 292 292 292 292 292 292 293 293 292 292 291 291 290 290 290 291 291 291 291 291 291 291 289 288 287 286 285 284 282 282 281 280 279 280 280 280 281 281 281 280 279 279 280 280
286 287 287 286 287 287 286 286 286 286 287 286 286 286 285 286 286 286 287 287 286 286 288 288 288 288 288 288 289 289 289 290 291 292 293 293 294 293 293 293 292 291 292 292 291 292 292 292 292 292 292 288 288 290 290 289 289 289 290 290 290 290 291 292 291 289 288 286 285 283 283 282 280 280 281 281 282 280 281 280 281 281 281 281 282
286 286 286 286 286 286 286 286 286 286 286 286 286 286 286 286 286 286 286 286 287 287 287 287 287 287 288 288 288 289 289 289 291 291 292 292 293 293 293 292 292 292 292 292 292 292 292 292 292 291 291 289 289 288 288 288 288 288 288 288 288 288 289 290 290 289 287 287 286 284 284 284 282 282 283 284 282 281 280 280 282 281 281 282 281
286 286 285 285 286 285 285 285 285 285 285 285 285 285 285 286 286 286 286 286 286 286 287 287 287 287 287 287 288 288 289 290 291 291 292 292 293 293 292 292 291 291 291 291 291 291 291 291 291 291 291 289 289 288 287 287 287 286 286 286 287 287 286 287 288 287 286 287 287 286 285 284 284 283 283 284 284 283 283 282 282 282 281 280 279
285 285 285 285 285 285 284 284 284 284 284 284 284 284 285 285 285 286 285 286 286 286 286 286 286 286 287 286 287 287 288 290 290 291 291 292 293 291 291 290 290 290 290 291 291 291 291 291 290 290 290 289 288 289 288 287 286 286 285 286 285 285 285 286 288 288 287 287 286 286 285 285 286 284 284 284 284 284 283 282 282 280 279 278 276
284 284 285 285 285 284 284 284 283 283 283 283 283 283 284 284 285 284 284 285 285 285 285 286 286 286 286 286 286 286 287 288 289 290 291 291 291 289 289 289 289 289 289 290 290 291 290 290 290 289 289 288 288 290 290 288 286 285 285 285 284 284 284 285 288 288 288 288 288 288 288 287 288 287 287 287 285 283 282 280 279 280 279 276 276
284 284 284 284 284 284 283 283 282 282 282 282 282 283 283 284 284 284 283 283 284 285 285 285 285 285 285 285 285 285 286 287 288 289 290 290 290 288 288 288 288 288 288 289 290 289 289 287 287 288 288 288 289 289 290 288 285 285 285 284 283 282 283 284 285 286 288 288 288 288 288 288 288 288 288 287 286 285 282 280 280 281 280 279 276
284 283 284 284 283 283 283 282 281 281 281 281 281 281 282 282 283 283 283 283 283 284 284 284 284 285 285 284 284 284 285 285 287 288 289 289 289 287 288 287 287 287 288 288 288 288 288 287 286 287 288 288 289 289 289 288 286 285 284 283 282 282 283 284 284 284 284 284 285 285 285 286 286 286 286 287 286 285 285 283 282 281 280 279 277
283 283 283 283 283 282 282 281 281 280 280 281 281 281 281 281 281 282 282 282 282 283 283 283 282 283 284 283 284 284 284 284 285 286 288 288 289 288 288 287 286 286 287 287 287 287 287 286 287 288 289 289 289 289 289 289 286 285 285 283 282 282 284 283 284 284 284 284 284 285 285 285 285 285 285 285 285 284 283 282 282 282 280 279 277
283 283 283 282 282 281 281 280 280 280 280 280 280 280 281 281 281 280 281 281 281 281 281 281 282 282 283 283 283 283 283 283 284 285 286 287 288 288 286 286 286 286 286 286 287 287 287 287 286 287 288 289 289 288 288 289 288 285 285 284 284 285 285 283 284 284 284 284 284 284 283 283 283 284 284 283 283 282 282 282 282 282 280 278 277
282 281 281 281 280 280 280 280 280 280 280 280 279 280 280 280 280 280 280 280 279 280 280 281 282 282 283 284 283 283 283 282 283 284 285 286 287 288 286 286 286 286 286 286 286 286 287 287 286 285 287 288 288 288 288 289 289 285 285 286 287 286 284 284 284 284 283 283 282 281 281 280 281 281 281 281 281 280 281 281 281 280 281 280 279
280 279 279 279 279 279 279 279 279 279 279 279 278 278 279 279 279 279 279 279 279 279 280 281 281 281 282 284 284 284 283 282 282 282 284 285 286 287 287 287 288 287 286 285 286 286 287 286 285 285 285 286 287 288 288 288 288 286 286 287 287 287 285 284 283 283 282 282 281 279 279 279 279 278 278 278 278 278 278 278 277 276 275 275 276
277 277 277 277 277 278 278 278 278 279 279 279 278 278 279 279 279 280 279 279 279 279 280 281 281 281 281 282 284 285 284 282 282 282 283 284 286 287 287 288 288 286 286 286 286 287 287 286 285 285 285 285 286 287 287 287 287 287 287 287 287 286 284 283 282 282 281 280 279 279 278 279 278 278 277 277 277 276 275 275 274 273 272 270 270
274 274 275 275 276 277 277 278 278 278 278 278 278 278 278 279 279 279 279 279 279 279 279 280 280 280 281 281 282 284 284 282 281 281 282 283 285 286 286 287 287 288 286 286 287 287 286 287 286 285 285 285 286 286 287 287 287 287 287 286 285 284 283 282 282 281 280 279 279 279 279 278 278 277 277 276 274 273 271 269 268 266 265 265 264
273 273 274 275 275 276 276 277 277 278 278 278 278 278 278 278 278 278 279 278 279 278 279 279 280 280 280 281 282 283 283 283 282 281 280 281 282 284 285 285 285 286 286 286 286 287 287 287 286 285 284 285 285 285 285 285 286 286 286 285 285 284 283 282 281 280 280 280 279 278 278 278 276 275 275 274 273 272 271 269 267 268 268 267 265
272 272 273 274 274 275 275 276 277 277 278 278 278 278 278 278 278 278 278 278 278 278 279 279 279 280 280 281 281 282 282 283 283 281 279 279 280 281 281 282 283 284 284 285 285 286 286 285 284 284 284 284 284 285 284 285 285 285 285 285 285 283 283 282 281 281 280 280 279 278 277 276 275 274 274 274 272 271 271 271 270 268 267 266 264
271 271 272 272 273 274 275 275 276 276 277 277 277 277 278 278 278 278 278 278 278 278 279 279 279 280 280 281 281 282 282 282 283 282 279 279 280 280 281 282 282 283 283 284 285 285 284 284 283 283 283 283 283 283 284 284 285 285 284 285 284 283 283 283 282 282 281 280 278 276 274 274 274 274 273 273 272 271 271 270 268 266 266 265 263
269 269 270 271 271 273 274 274 275 275 275 276 277 277 277 277 278 278 279 280 279 279 278 279 279 280 280 280 280 280 281 281 282 284 282 283 282 281 281 282 283 283 284 285 284 282 282 281 281 281 281 281 281 282 282 283 283 284 284 284 282 282 281 281 280 280 278 277 274 274 273 274 273 273 273 271 270 270 271 270 268 266 266 267 265
266 266 268 268 269 270 271 272 272 273 274 275 276 277 278 280 280 279 279 280 282 283 283 280 281 281 280 281 281 280 280 282 284 285 285 286 286 286 285 285 285 285 285 286 284 281 281 279 279 280 280 280 280 280 281 282 282 282 282 282 281 281 281 280 280 278 277 276 275 275 274 274 273 273 272 270 270 270 270 270 267 267 267 266 263
265 265 266 267 268 269 270 271 272 274 274 275 275 275 275 277 280 281 281 280 281 282 283 284 284 284 283 282 283 285 284 285 285 285 285 285 286 285 285 286 286 286 286 284 282 281 279 278 279 279 280 280 280 280 281 282 281 281 280 280 280 280 279 279 278 277 276 275 275 275 274 273 272 272 271 269 269 269 269 268 267 268 268 266 264
264 264 265 266 268 268 269 270 271 272 273 274 275 274 274 274 275 278 280 280 281 282 282 283 284 284 284 284 283 283 284 285 285 285 285 285 285 285 285 285 285 286 286 286 281 279 279 279 278 279 279 279 280 281 281 282 281 280 279 278 278 279 278 277 276 276 275 275 274 273 273 273 272 271 270 269 268 268 268 267 268 267 267 267 265
264 264 265 266 267 268 269 270 270 271 272 272 272 272 273 273 273 274 277 280 280 280 281 282 283 283 284 284 285 285 285 285 285 285 285 285 285 285 285 285 285 286 286 284 281 279 279 279 279 279 279 279 280 280 281 281 280 278 278 277 277 277 277 276 276 275 275 274 274 273 272 272 271 270 269 268 269 268 267 267 267 267 266 264 262
264 265 266 267 268 268 269 270 270 270 270 271 271 273 273 274 274 274 273 274 276 279 281 282 282 282 283 284 284 285 285 285 285 285 285 285 285 285 285 284 285 286 285 282 281 279 279 279 279 279 279 280 280 280 280 279 278 278 277 277 276 275 274 274 274 274 273 273 273 271 271 270 270 269 268 268 269 268 267 266 266 265 266 265 262
265 266 267 268 267 267 267 268 268 269 270 270 271 272 272 273 273 273 273 274 274 275 276 278 280 282 281 282 283 284 284 284 285 285 285 285 285 285 285 282 281 282 283 283 282 280 279 279 279 279 279 279 279 279 279 278 278 277 277 275 274 273 273 273 273 273 272 272 271 270 270 269 269 269 268 267 267 267 266 265 266 267 265 263 261
262 262 262 263 263 264 264 265 266 266 266 267 268 269 270 271 272 273 274 275 275 275 276 278 279 281 282 283 283 283 284 284 285 285 285 285 285 285 281 280 280 281 281 282 281 280 280 280 279 279 280 279 279 279 279 278 278 277 276 273 272 272 272 272 271 271 270 270 269 269 269 269 269 268 268 267 267 266 265 265 265 264 263 262 261
260 260 260 261 262 262 262 263 263 264 265 267 268 268 270 271 272 273 274 275 275 276 277 278 279 280 281 282 283 283 284 284 284 285 285 285 285 284 282 281 280 281 281 281 281 280 279 279 280 279 279 278 278 278 278 277 277 275 274 273 272 272 272 271 270 269 270 269 268 269 268 267 267 267 267 267 266 266 264 263 262 261 260 259 259
259 259 260 261 261 261 262 262 263 265 266 267 268 269 270 271 272 274 275 275 276 276 276 277 278 278 278 280 282 282 282 283 283 283 284 284 283 282 281 281 281 280 280 281 281 280 279 279 279 279 278 278 277 277 277 275 274 273 272 272 272 271 270 270 269 269 268 267 267 267 266 266 267 267 266 265 263 262 261 260 260 260 258 258 259
259 260 261 261 262 261 261 262 263 264 265 266 267 268 269 269 270 271 273 275 276 276 277 277 277 278 279 280 281 282 281 280 280 279 280 281 281 281 281 281 281 281 281 280 278 278 278 278 277 278 277 277 276 276 275 274 273 272 271 271 270 269 269 269 268 267 267 267 266 266 265 265 265 266 266 264 262 261 259 259 260 259 258 258 258
259 259 260 261 261 261 262 263 263 263 264 265 265 267 268 268 269 270 271 273 274 274 275 275 276 278 280 280 280 280 279 279 279 279 280 280 280 280 281 280 280 280 279 278 277 277 277 277 276 276 275 275 275 274 273 272 272 271 270 270 268 268 269 268 267 267 266 265 265 264 264 264 264 264 265 264 261 260 258 257 258 259 259 258 256
258 259 260 261 262 261 262 262 262 262 263 264 265 265 265 266 267 269 269 270 272 274 275 276 276 277 278 279 280 281 280 279 279 279 279 279 279 280 280 280 280 279 277 276 276 276 276 275 275 274 274 273 273 272 272 271 270 270 270 269 269 268 268 267 267 266 265 264 263 263 262 262 262 263 262 259 259 259 258 257 257 257 256 256 255
259 259 259 260 261 261 261 261 262 263 263 263 263 264 265 266 267 268 268 269 271 273 274 274 274 275 277 278 279 281 280 280 280 279 279 279 279 279 279 280 280 278 276 276 275 274 274 274 273 273 272 271 271 270 270 270 270 270 270 269 268 267 266 266 265 264 264 263 263 262 261 261 262 262 260 258 257 256 256 256 256 255 255 255 255
259 260 260 260 260 260 261 261 262 262 262 262 263 264 265 265 265 266 267 268 270 271 271 272 273 274 276 278 279 280 279 279 275 278 278 278 279 278 279 278 277 276 276 275 275 274 274 273 272 272 272 271 271 270 270 270 270 270 269 268 267 266 266 265 264 263 263 263 261 260 260 261 260 260 259 257 256 256 255 255 254 255 255 254 254
260 260 260 260 260 261 261 261 261 262 262 263 263 264 264 265 265 266 267 268 269 270 271 272 273 274 275 277 277 277 277 278 278 279 278 276 275 274 274 274 275 274 274 273 273 273 273 272 271 270 270 270 270 270 271 271 271 270 269 268 266 265 265 264 264 264 264 263 261 260 260 259 258 258 256 255 255 255 254 254 254 254 253 253 253
259 259 260 260 260 260 260 261 261 262 262 263 263 263 264 265 265 266 267 268 269 270 271 272 274 274 275 276 276 276 276 277 275 274 273 272 271 270 270 271 272 273 272 271 272 272 271 270 269 268 267 267 268 268 269 269 270 270 269 268 266 264 264 264 265 264 263 262 261 260 259 258 257 257 256 255 255 255 254 254 254 253 252 252 252
259 259 259 260 260 260 261 261 262 262 262 262 263 263 264 265 266 267 268 268 269 270 271 272 273 273 274 274 275 273 274 273 272 270 268 267 267 267 267 268 268 269 270 270 270 269 269 268 267 266 265 265 265 266 266 266 267 268 268 267 266 265 265 264 262 262 262 262 261 260 259 257 257 256 255 255 255 255 254 253 253 254 253 252 252
258 259 259 259 259 260 261 261 261 261 262 262 263 263 264 265 266 267 268 268 269 270 271 272 272 273 274 274 273 271 269 269 268 267 266 265 265 264 264 264 265 265 265 265 266 266 265 265 265 264 264 263 263 263 263 264 264 264 264 265 264 263 262 261 262 262 262 261 260 259 258 257 256 256 255 255 254 254 253 253 253 252 252 252 251
258 258 259 259 259 259 259 260 260 261 261 261 261 262 262 263 265 266 267 268 269 270 271 271 272 272 271 270 268 267 266 266 264 263 263 263 262 261 262 262 263 263 264 264 264 264 264 264 263 262 262 262 261 261 261 261 261 261 261 261 261 260 259 259 260 260 260 260 259 259 258 257 256 255 255 254 254 253 252 252 251 251 251 251 251
257 258 258 259 259 259 259 259 260 259 259 260 260 260 261 262 263 264 266 267 268 268 269 269 269 268 267 265 264 263 263 262 262 261 261 261 262 262 262 261 261 262 263 263 263 263 263 262 262 262 262 261 261 261 259 259 259 258 258 258 259 259 259 258 258 258 258 259 258 258 257 257 255 255 254 253 253 253 253 252 251 251 250 250 250
257 258 258 258 258 258 259 259 259 259 259 259 259 259 260 260 261 262 263 264 265 265 265 265 264 263 263 263 263 262 262 261 261 261 260 261 261 261 261 261 261 261 261 261 261 261 262 262 262 261 261 260 260 260 259 259 258 258 258 259 260 259 258 257 257 257 257 258 257 257 256 255 254 254 253 253 252 251 251 251 251 250 250 250 249
257 257 257 257 257 258 257 257 258 258 258 258 258 258 259 259 259 260 261 261 262 262 262 262 262 262 262 262 262 262 261 260 260 260 260 260 260 260 260 259 259 258 258 258 258 259 259 260 260 260 259 259 259 258 258 258 258 259 260 260 259 257 257 256 256 256 256 256 256 256 255 254 253 252 251 251 251 251 250 250 250 250 249 249 249
Wind_Speed
7 7 6 6 4 5 5 5 6 6 6 5 6 6 6 6 6 7 4 7 6 7 8 8 8 8 7 8 8 8 8 8 8 8 9 10 9 9 8 9 11 11 10 10 9 10 10 11 11 12 10 10 9 9 10 11 10 11 9 10 11 10 11 12 15 17 9 3 3 5 6 7 7 9 9 8 8 9 10 8 9 10 9 8 9
7 6 5 5 6 6 6 5 5 5 5 5 6 6 6 6 6 5 6 8 5 7 8 7 7 7 8 8 8 9 9 9 8 8 9 10 11 9 9 9 11 11 10 12 10 9 9 11 12 12 10 12 10 12 11 11 11 11 11 11 12 12 12 12 14 13 18 3 4 2 4 6 7 7 10 11 10 9 11 9 8 9 8 7 7
6 6 6 6 5 4 4 4 4 4 4 4 5 6 6 6 5 6 7 7 6 6 7 7 7 7 8 8 9 9 9 9 8 8 9 10 11 10 10 10 11 12 12 12 11 9 10 11 11 10 8 10 11 11 10 12 10 12 13 10 13 13 12 14 12 14 15 13 6 6 6 6 8 7 10 7 8 9 9 7 6 6 6 8 8
7 6 5 5 4 4 4 5 5 5 6 5 6 6 6 6 5 5 6 6 7 6 6 7 6 7 8 8 9 9 8 8 8 8 10 10 11 11 10 11 11 11 12 12 10 10 11 11 12 10 9 11 11 10 10 10 10 10 11 11 12 13 13 11 14 13 12 12 5 9 6 6 4 3 5 5 6 5 5 4 5 6 6 6 6
8 8 7 8 8 8 9 9 9 10 9 8 9 8 7 6 6 6 6 7 7 6 7 5 6 7 8 9 8 8 8 8 8 9 9 10 10 10 10 10 11 11 11 11 11 11 11 12 11 10 10 12 11 11 9 11 11 10 12 11 11 12 10 10 12 11 12 13 6 2 3 3 1 2 7 8 6 5 5 5 6 5 5 4 3
8 8 9 10 10 11 10 10 10 10 9 9 9 9 8 7 7 6 5 7 7 6 7 6 6 8 8 9 8 8 8 8 9 10 10 10 10 10 10 10 11 10 11 11 11 10 11 11 11 10 10 12 12 10 10 12 11 12 12 11 11 10 11 10 10 11 11 11 8 4 4 6 3 2 6 7 9 6 5 5 4 4 6 5 3
8 8 9 9 9 10 10 10 9 9 9 9 8 8 8 8 7 8 6 6 7 8 7 7 7 7 8 8 8 8 8 8 9 10 10 10 11 11 10 10 11 10 11 11 10 10 11 11 11 10 11 11 11 11 10 11 10 12 11 12 11 10 10 10 9 10 10 10 6 6 6 4 5 5 3 3 3 7 11 7 4 2 2 5 5
7 7 7 8 8 8 8 8 8 8 8 8 8 8 8 8 8 7 6 7 7 7 8 8 8 6 8 8 8 8 8 8 9 9 10 10 10 10 10 10 11 11 11 10 10 11 11 11 11 11 11 11 11 11 10 11 10 11 10 10 10 10 10 9 9 9 9 9 9 6 6 5 4 3 6 8 7 4 5 6 8 6 5 4 4
6 6 6 7 7 6 7 7 6 7 7 7 8 8 8 8 8 8 7 7 7 7 7 7 8 9 8 8 8 8 8 9 9 9 9 10 10 11 11 11 11 11 11 11 11 11 11 11 11 11 12 14 16 15 14 13 10 10 10 9 10 10 10 8 8 8 7 8 8 6 6 5 6 8 9 9 10 9 8 6 6 6 6 6 3
5 5 5 5 5 5 6 6 6 6 6 7 7 7 7 8 7 8 8 7 7 7 7 7 7 8 9 9 8 8 8 8 10 14 13 11 10 10 10 11 11 11 11 11 11 11 12 11 12 15 16 16 17 18 18 17 17 14 11 8 10 9 9 9 9 9 9 9 10 10 11 11 8 10 9 8 8 8 9 9 11 8 7 5 4
4 4 5 5 5 5 5 6 6 6 6 6 6 7 7 7 7 7 7 7 8 7 6 7 8 7 8 9 9 9 8 8 13 14 15 17 13 11 11 11 10 11 11 12 12 11 11 12 12 13 14 14 15 17 18 19 19 20 20 17 13 12 11 11 11 10 10 11 9 10 11 10 9 9 11 11 9 13 12 11 10 9 9 9 8
5 5 5 5 5 5 5 6 6 5 5 5 6 6 5 5 5 6 6 6 6 6 7 8 8 8 8 8 9 9 9 10 14 14 15 17 15 12 11 11 11 11 11 12 11 11 11 11 11 10 10 12 11 12 15 18 19 19 19 19 18 18 17 14 12 10 11 10 9 11 11 9 12 11 10 12 13 12 11 9 9 10 10 9 8
4 4 4 4 5 5 5 6 6 6 7 6 6 4 5 4 5 5 5 5 5 5 7 7 8 7 7 9 10 9 9 10 12 15 15 17 17 15 11 11 11 12 11 12 11 11 11 11 11 9 8 12 12 11 11 11 14 18 18 18 18 19 19 21 18 13 10 11 12 12 14 12 14 11 13 15 12 10 9 9 9 9 9 10 8
5 6 6 6 7 7 8 7 9 9 8 7 8 7 7 7 7 5 5 5 6 6 6 6 7 8 8 9 10 9 9 9 11 13 15 16 17 15 12 12 12 13 13 12 11 12 12 11 11 10 8 9 9 10 10 10 10 10 11 11 11 14 18 20 19 17 13 12 12 13 10 10 12 12 13 12 14 13 11 9 10 9 10 9 6
7 7 7 7 8 8 9 9 10 10 9 8 8 8 8 9 9 8 7 7 8 9 9 10 8 7 8 8 9 10 9 10 12 13 14 16 16 15 11 11 11 12 12 12 12 13 12 11 11 11 9 8 9 10 10 10 9 10 9 10 10 10 10 11 11 11 10 10 11 10 10 12 12 13 13 12 14 13 13 14 13 9 8 8 7
7 7 8 8 8 8 8 9 9 8 9 9 9 9 9 8 10 10 8 8 6 6 7 5 8 9 8 8 9 12 9 9 13 13 14 14 17 11 10 10 11 11 11 12 12 11 11 11 11 11 10 10 10 14 14 9 9 11 11 10 9 8 9 11 13 12 11 10 9 10 10 12 12 12 13 12 9 7 8 8 8 10 11 8 7
8 8 8 9 9 9 8 9 8 9 9 9 9 9 9 10 8 6 9 8 7 8 8 8 7 8 10 8 8 11 11 9 11 13 13 14 12 9 9 9 11 12 12 12 11 11 10 10 10 10 10 10 11 16 17 14 10 11 10 10 9 8 8 7 12 15 14 15 16 15 14 16 17 18 20 19 13 12 11 10 10 11 11 8 6
7 8 9 10 10 9 9 8 9 9 9 9 10 10 8 7 7 6 8 11 12 10 9 10 9 7 9 11 8 10 13 11 11 13 14 14 12 10 9 9 11 12 12 12 10 9 10 13 12 10 11 11 13 18 17 13 11 10 10 10 10 10 8 6 6 9 14 15 16 16 16 19 20 23 24 22 21 16 13 13 13 11 11 11 8
10 11 11 10 9 9 8 9 9 9 10 10 8 10 10 9 9 7 7 7 10 9 8 9 11 10 8 9 12 11 12 14 11 11 16 15 12 8 9 9 11 12 10 11 9 8 9 10 15 14 13 13 18 16 18 15 11 11 11 10 11 11 10 9 10 9 9 10 9 10 11 15 14 13 15 25 24 18 12 11 12 10 10 10 9
10 9 9 9 8 8 7 8 8 8 10 10 9 8 8 9 9 8 9 7 9 10 9 9 11 12 10 8 10 10 11 13 11 11 15 16 16 11 8 9 10 13 11 10 11 9 8 9 10 16 21 20 18 18 18 20 13 10 9 10 11 12 8 10 9 8 9 8 7 8 9 9 9 10 11 13 14 10 7 7 7 5 7 9 9
10 10 10 9 9 9 8 6 10 10 7 8 10 9 7 8 10 9 10 9 8 10 11 10 11 13 11 9 9 10 9 11 13 11 13 16 17 15 9 11 11 11 12 11 11 11 10 10 9 13 18 19 20 19 19 20 19 12 11 11 11 8 9 8 10 12 10 10 9 9 7 8 9 8 7 8 9 7 5 5 4 3 6 9 7
9 10 10 10 10 9 9 10 8 8 9 8 10 12 9 7 8 9 8 9 11 12 12 10 10 12 13 11 9 11 10 12 12 12 13 16 18 18 12 11 11 9 11 12 11 10 10 9 9 10 16 18 18 20 21 20 22 12 11 12 11 15 13 10 10 10 10 8 7 6 7 7 10 6 7 7 7 7 7 6 5 4 3 3 6
10 9 9 10 9 10 9 9 10 8 9 9 9 12 11 9 9 9 9 10 11 13 12 11 11 12 13 12 11 10 10 9 12 12 12 16 17 18 20 16 16 12 11 13 12 11 9 8 8 11 16 17 17 19 20 22 19 12 15 18 16 20 14 9 9 10 9 8 7 7 7 8 8 6 9 8 7 8 7 7 8 8 8 7 6
8 9 8 8 9 9 9 9 9 8 9 9 9 11 12 11 11 10 8 8 10 12 12 11 10 12 13 14 13 12 9 8 8 13 12 15 16 19 20 21 20 13 11 12 11 10 9 8 9 14 16 16 18 19 20 20 13 17 20 20 19 18 11 10 10 10 10 10 8 7 8 9 9 10 9 9 8 8 9 9 9 10 9 8 9
9 9 9 9 9 9 10 10 9 9 9 8 10 11 12 11 11 11 10 9 10 11 12 11 11 12 13 14 14 13 12 7 8 9 13 14 17 18 20 21 20 20 14 12 12 10 11 13 14 16 16 16 18 18 18 19 21 20 22 20 16 11 12 11 11 10 10 9 10 10 9 8 8 8 9 10 11 11 12 11 11 9 9 11 10
10 10 10 10 11 10 12 13 11 10 10 8 8 9 10 11 11 12 11 11 10 11 12 12 12 12 13 13 14 14 13 11 10 8 8 10 11 16 19 19 19 18 17 14 16 16 16 16 16 15 14 13 11 10 9 10 14 17 18 17 11 10 10 10 11 10 10 10 11 10 9 9 8 9 11 10 10 10 11 10 9 8 9 9 9
11 10 10 11 12 10 11 11 12 12 10 9 9 9 9 9 10 12 11 11 11 11 12 12 13 13 13 14 14 13 13 12 11 8 6 6 7 8 8 10 14 15 12 11 13 13 14 13 10 12 10 14 15 13 11 10 10 11 11 11 9 9 11 11 12 12 11 11 10 9 8 8 10 12 11 10 10 9 9 10 11 8 7 6 8
11 12 12 11 10 10 10 13 13 11 11 9 10 10 10 9 10 12 13 12 11 13 13 13 13 13 13 13 14 13 14 13 12 9 6 7 6 6 6 6 7 5 7 8 9 9 8 7 10 8 8 8 9 8 8 8 9 9 9 9 8 8 9 9 8 7 8 8 9 10 9 10 11 10 10 9 9 9 8 9 10 7 7 7 6
12 12 11 10 10 10 10 10 10 11 12 12 10 10 11 11 12 14 14 12 11 12 14 15 15 14 11 13 14 15 15 15 14 4 7 10 9 7 7 7 6 7 10 12 7 5 5 6 7 8 8 9 9 10 9 9 9 9 10 9 8 9 9 8 8 8 7 9 10 11 10 10 9 9 9 8 8 9 8 9 10 9 5 3 6
12 11 10 10 11 11 11 11 11 11 11 12 12 14 15 19 16 15 17 19 22 23 20 18 17 14 14 14 14 14 15 17 21 22 21 19 17 17 17 17 15 13 12 16 10 8 9 7 7 8 9 9 10 10 10 9 9 9 9 9 9 9 10 9 8 8 8 9 10 11 11 11 11 11 9 9 8 8 7 9 7 7 6 5 7
10 10 10 10 12 12 12 12 11 11 11 13 12 14 17 17 21 25 25 27 30 31 28 31 32 32 22 18 18 24 26 27 29 29 29 26 26 26 22 18 19 19 18 11 10 10 8 7 8 8 9 9 9 9 9 8 9 9 8 9 9 10 10 9 8 8 8 9 9 10 10 11 11 11 10 9 10 10 8 6 6 6 5 6 6
10 10 10 10 13 13 11 13 14 13 13 11 12 14 16 18 20 20 21 21 23 27 30 30 29 27 30 27 21 16 21 24 26 28 29 27 26 24 24 24 21 20 19 19 10 10 9 8 8 9 9 10 10 9 9 9 8 9 9 9 9 9 10 10 10 10 9 9 10 9 10 10 10 10 10 9 10 9 9 8 7 6 6 4 5
10 10 11 12 13 14 13 12 12 13 14 15 16 15 16 15 17 19 19 20 23 24 27 30 30 28 27 30 30 25 24 26 32 31 30 30 28 26 25 24 22 21 20 14 11 8 9 9 9 8 9 10 10 9 9 9 8 8 9 9 9 8 8 9 11 10 10 10 11 10 10 9 9 9 9 10 12 10 9 8 6 6 6 6 5
10 10 10 12 13 13 12 13 14 15 15 16 16 15 15 15 16 17 19 21 20 17 17 20 22 24 27 30 28 27 26 26 25 27 28 28 27 26 24 18 21 21 18 13 11 8 10 9 10 10 10 10 9 8 8 7 8 8 8 8 7 7 8 9 9 9 9 9 9 9 9 10 10 11 9 9 9 9 8 5 6 7 6 6 5
10 13 19 17 12 13 14 13 12 14 16 16 16 16 17 17 16 17 17 18 18 19 18 15 15 18 19 20 25 28 27 26 25 24 26 27 27 26 24 16 14 12 13 13 12 10 10 11 10 9 9 9 8 8 8 8 9 10 10 9 9 9 9 9 9 9 10 9 9 9 9 11 10 9 11 10 9 9 8 8 7 7 6 5 6
12 12 11 13 11 11 10 11 11 14 15 16 16 17 17 16 17 16 16 17 17 17 18 17 15 14 22 23 26 29 30 29 27 25 21 25 24 23 14 12 11 11 11 11 11 11 10 9 9 8 8 7 7 8 8 9 9 10 10 10 10 10 9 9 9 9 9 9 9 10 10 9 10 9 8 8 10 9 8 7 7 6 6 6 6
10 10 10 9 9 10 11 12 11 13 15 16 15 15 15 16 16 16 16 16 16 15 14 13 13 14 13 10 13 18 22 23 24 24 24 24 25 17 12 12 11 11 10 11 10 9 9 8 7 7 7 7 7 7 8 8 8 8 8 9 10 10 10 10 9 9 10 9 8 10 10 10 9 9 10 10 8 8 7 7 6 6 5 7 7
10 10 10 10 12 12 13 12 14 18 15 13 13 14 15 15 16 16 16 15 16 15 15 15 14 14 14 11 9 9 13 16 18 17 19 20 15 11 10 10 11 12 11 9 9 8 8 6 6 6 6 7 7 7 7 8 8 9 9 9 9 9 10 10 9 10 9 9 9 10 9 9 9 9 8 9 8 7 8 6 7 6 6 6 7
9 14 19 22 18 14 13 14 14 14 14 14 14 15 16 16 17 16 16 15 14 13 13 13 13 13 13 11 11 11 12 10 8 9 10 9 10 10 10 10 10 11 10 8 6 6 6 6 5 5 6 6 7 7 8 8 8 9 9 10 9 10 11 10 10 11 9 9 9 8 9 8 8 8 8 8 7 8 8 8 8 9 8 7 5
10 10 12 19 14 14 14 14 14 15 15 14 14 14 15 16 16 17 17 17 16 15 15 15 14 12 11 10 12 10 11 10 10 10 10 9 9 9 9 10 10 10 8 6 6 6 6 6 6 6 6 6 7 7 8 9 9 9 9 10 10 10 11 11 10 10 9 9 9 8 8 9 8 7 6 6 6 7 9 9 8 8 8 6 6
9 10 12 13 15 14 14 14 13 14 14 14 15 15 15 17 16 17 16 17 17 17 13 11 12 13 15 18 24 21 13 11 11 10 10 10 9 9 9 10 9 7 5 6 6 6 6 6 6 6 6 6 6 7 8 9 9 9 10 9 9 10 10 10 9 9 9 9 8 8 7 8 7 7 7 6 6 7 8 8 7 6 6 6 7
10 10 10 10 12 12 13 14 14 15 15 16 15 15 16 16 16 15 17 17 18 16 14 15 15 14 19 29 27 25 15 12 12 10 10 9 9 9 9 8 5 5 6 6 7 7 6 6 6 7 7 7 7 7 8 9 9 10 10 10 9 10 9 8 8 10 10 9 9 9 8 8 7 6 7 7 7 7 7 7 7 8 6 6 6
10 9 10 11 11 11 12 13 14 14 14 15 15 15 17 17 16 17 17 17 17 17 16 16 16 14 16 20 19 18 12 12 10 11 10 9 9 7 6 5 5 5 6 6 6 7 7 7 7 6 7 8 9 9 9 10 9 9 10 10 9 9 10 9 9 8 8 9 9 9 10 9 8 8 8 7 7 6 7 9 9 7 6 6 6
8 9 10 10 10 11 11 11 13 14 13 17 19 17 17 16 16 16 15 15 15 14 15 15 14 14 13 13 13 11 10 10 10 9 9 6 5 2 1 2 4 6 6 6 6 6 7 7 7 6 5 5 5 6 7 8 10 10 8 9 9 9 10 10 10 10 10 10 10 9 9 9 8 8 8 7 8 11 10 9 9 8 8 6 7
8 8 10 10 10 11 11 11 12 13 16 15 13 14 15 15 15 15 15 14 15 15 14 13 13 13 12 11 11 11 10 9 7 6 5 3 2 2 1 2 3 6 6 6 6 6 7 7 7 8 7 5 4 5 5 5 4 4 5 10 12 11 10 10 9 9 10 11 10 9 9 11 11 10 7 8 10 10 9 8 9 6 8 7 7
8 8 9 10 11 11 12 12 12 12 12 12 13 13 13 13 13 14 15 15 15 15 14 13 13 13 13 12 11 7 8 6 5 3 1 2 2 2 2 2 3 3 4 5 6 6 6 7 7 8 8 8 7 6 5 5 6 6 6 4 6 8 8 8 8 9 10 10 10 10 12 12 11 8 8 7 6 7 8 7 7 7 9 8 7
8 8 9 9 11 12 12 13 12 13 13 14 14 15 15 15 15 15 15 16 17 14 12 11 12 11 11 11 8 6 3 3 2 2 2 2 3 3 3 3 4 4 5 6 6 7 7 7 6 8 8 8 8 8 7 6 6 6 6 7 9 10 9 9 8 7 9 9 9 10 9 8 8 7 8 8 7 7 9 9 8 9 7 8 8
8 8 8 9 10 11 12 12 13 15 13 13 14 15 15 15 15 14 14 13 13 11 12 11 10 11 8 7 4 3 3 3 3 3 3 3 3 3 4 4 5 4 5 7 7 7 8 8 8 8 8 8 8 8 7 7 7 7 6 6 7 8 10 10 8 9 8 9 8 10 10 10 8 8 8 9 8 9 10 7 5 5 6 6 6
8 8 8 9 10 10 11 12 13 12 12 13 13 14 14 14 15 14 13 12 11 11 10 10 9 8 6 5 4 3 3 2 4 4 4 4 4 4 4 5 5 5 5 6 7 7 7 7 7 7 7 7 7 7 6 7 7 7 8 7 9 16 15 13 9 9 11 9 8 9 10 10 10 9 9 8 8 7 8 7 7 7 5 5 6
7 8 8 9 9 9 10 11 11 11 12 11 12 12 13 13 13 13 13 13 11 10 9 8 7 6 6 5 4 4 4 4 4 4 4 4 4 4 4 5 6 6 6 6 6 7 7 7 6 6 7 7 8 8 7 7 7 8 7 8 15 15 13 13 12 13 11 9 11 8 8 10 10 9 8 8 8 9 8 8 7 7 7 7 7
7 7 7 7 8 8 9 10 11 11 11 11 11 11 12 12 12 12 11 11 11 10 9 8 7 7 6 6 5 5 5 5 5 4 4 4 4 5 5 6 6 6 7 7 7 7 7 7 6 6 7 8 8 8 8 8 7 7 11 16 16 14 14 11 9 9 11 9 10 10 12 13 11 10 9 7 7 8 8 8 8 8 6 6 6
Wind_Direction
21 12 355 354 345 329 310 310 295 285 286 271 268 268 267 260 257 255 271 251 237 241 242 241 239 235 236 233 234 235 232 231 224 222 224 234 234 234 232 223 229 236 233 233 227 228 229 232 234 233 227 229 225 225 223 223 220 225 220 223 226 216 217 230 242 259 252 158 189 191 164 157 188 190 194 192 193 197 197 198 185 188 184 183 184
14 3 359 349 358 336 324 304 285 290 280 282 266 270 267 260 260 268 252 262 235 246 247 248 244 240 238 240 238 234 235 232 224 218 227 233 236 229 233 228 232 237 229 235 229 226 230 234 234 232 222 226 221 224 221 221 220 219 220 217 223 221 211 221 239 244 259 176 225 135 186 184 194 187 193 188 194 181 189 186 185 183 178 170 170
5 3 3 2 347 302 274 277 276 274 273 269 269 270 271 270 262 261 266 270 259 247 258 257 249 245 246 246 246 243 236 237 226 221 228 232 236 235 230 228 231 235 235 236 233 226 229 233 239 236 229 232 230 230 222 225 219 222 225 217 225 225 217 218 229 243 249 252 165 184 189 192 202 185 196 194 181 180 174 167 165 174 170 165 162
359 11 14 6 346 348 1 349 357 356 353 337 321 314 301 299 289 272 276 278 273 265 251 257 255 248 252 253 249 249 248 241 236 229 235 235 238 238 235 233 233 234 236 238 235 230 232 236 239 236 231 234 234 230 228 225 223 226 228 224 225 228 224 217 223 235 247 254 197 201 181 179 203 157 169 161 153 162 160 127 148 165 148 152 142
6 5 10 8 10 13 9 7 5 1 355 346 337 328 321 311 304 289 290 283 276 277 271 249 254 252 251 254 256 253 249 245 242 240 239 241 243 244 242 240 238 237 237 237 234 230 231 233 239 232 230 235 238 233 229 226 225 226 228 226 225 228 226 220 224 226 238 245 238 169 156 171 85 144 161 155 152 139 135 148 157 134 117 91 94
10 9 11 15 10 12 7 4 4 354 346 341 335 329 324 318 311 301 279 284 287 277 273 269 248 253 252 255 255 256 253 246 244 246 245 244 245 245 245 244 244 242 241 239 237 232 232 235 236 233 233 234 240 236 232 232 230 230 230 230 228 226 226 225 222 226 231 242 230 168 167 172 148 158 180 163 153 137 124 120 101 111 126 118 106
8 15 12 16 11 8 2 358 351 346 343 335 328 327 325 320 316 308 302 285 289 289 278 268 261 254 261 261 258 260 259 252 248 247 248 247 247 247 246 246 247 245 243 242 239 238 236 236 236 230 233 236 240 239 235 236 231 234 228 230 229 225 227 224 220 221 224 231 223 190 173 186 163 164 148 120 90 153 161 136 130 132 120 130 130
12 14 15 12 12 358 352 343 343 337 332 330 328 326 324 322 317 308 309 302 292 284 285 282 278 264 261 258 258 256 256 255 254 254 253 254 253 254 251 250 249 248 246 244 240 238 237 236 234 231 231 234 234 237 231 238 232 237 231 226 229 223 227 223 217 216 218 219 214 189 181 160 147 98 131 147 151 167 175 155 149 150 162 164 157
8 10 8 14 356 338 331 337 332 331 331 330 333 331 328 321 316 315 309 298 287 281 280 282 285 281 271 260 263 253 252 253 251 251 255 254 250 254 252 250 249 251 250 245 241 239 240 238 237 234 230 233 233 233 232 229 230 237 233 216 225 223 227 221 217 211 214 212 213 176 168 162 172 154 165 175 178 169 161 156 149 157 156 148 149
7 0 8 349 328 322 322 322 326 322 328 332 326 322 319 318 316 313 307 294 289 284 285 279 273 275 281 278 268 261 255 255 252 249 248 253 256 255 254 252 248 248 250 251 247 239 239 239 239 236 234 233 234 236 237 236 234 233 235 214 218 219 220 218 214 210 208 211 206 184 190 195 175 178 169 172 159 143 158 166 167 160 143 133 117
4 1 351 327 314 310 321 318 315 322 313 309 312 316 316 315 313 309 306 305 299 297 288 289 281 276 274 277 279 272 266 260 261 259 257 253 253 257 256 257 252 249 249 249 252 247 241 237 240 235 234 238 239 239 239 238 237 236 236 230 218 211 214 216 219 205 207 211 202 192 198 191 183 174 175 164 162 163 174 177 164 154 166 156 174
351 349 331 321 323 328 320 315 314 310 304 303 300 291 286 290 294 292 296 300 300 298 293 283 283 281 277 272 271 270 269 265 265 266 262 260 255 255 258 257 256 252 249 250 252 251 248 244 239 235 231 228 229 234 238 240 241 242 240 238 232 222 217 213 212 208 206 207 200 200 190 187 175 174 171 167 174 178 175 164 160 164 168 183 178
337 347 339 332 335 328 325 330 329 330 333 324 314 311 306 305 308 311 306 291 283 280 278 279 275 272 268 274 273 268 268 266 263 264 263 262 260 256 259 257 256 256 252 249 250 250 249 249 250 239 236 228 229 233 236 241 242 243 244 242 238 230 226 226 220 212 198 201 201 200 200 183 177 184 179 180 170 157 155 164 168 176 181 182 179
1 354 350 355 350 345 347 345 345 340 335 336 335 333 337 335 323 309 306 307 306 305 300 292 290 286 280 280 281 279 272 274 258 264 266 264 262 259 258 259 258 258 256 252 251 250 247 248 252 250 236 224 225 228 233 238 240 239 240 234 231 230 227 226 223 217 204 201 200 207 195 177 186 178 184 167 164 169 167 173 171 176 180 185 148
1 357 352 350 350 352 351 346 342 339 338 338 338 338 338 331 332 332 329 325 323 319 317 315 305 296 292 284 284 283 278 275 273 272 271 271 270 266 264 263 261 261 258 254 251 250 249 248 248 252 246 230 222 217 228 230 232 233 232 231 226 223 220 221 218 210 203 208 208 200 183 185 186 178 171 174 176 173 177 178 172 161 125 95 87
355 354 352 353 351 347 346 341 337 337 336 337 338 336 334 331 325 325 322 315 302 288 288 271 284 292 285 283 287 286 284 276 275 276 273 272 274 272 267 264 264 263 261 256 252 249 248 245 247 248 247 243 229 221 225 224 226 231 228 228 226 222 223 219 213 204 199 199 193 188 186 182 174 170 169 167 162 133 104 93 107 126 135 139 141
1 352 347 344 344 343 343 338 335 333 333 332 332 330 328 324 320 316 314 311 307 308 305 301 296 293 293 285 280 285 287 280 273 273 271 270 273 269 267 265 264 262 261 259 254 252 245 240 239 246 244 244 232 233 231 222 226 226 227 223 221 217 223 213 209 203 201 198 200 195 180 172 171 168 167 163 155 144 134 139 158 158 152 145 142
351 345 341 339 336 337 335 336 332 330 330 331 325 320 316 307 308 322 318 317 316 314 313 308 301 288 287 290 280 283 289 286 276 278 275 270 264 266 265 265 266 264 265 261 257 253 246 234 232 236 240 239 232 230 230 219 221 221 220 217 214 216 214 187 184 195 194 193 196 191 177 174 171 173 172 167 158 151 157 169 170 165 169 163 153
352 344 334 328 327 329 330 331 329 325 323 318 318 314 314 311 307 309 303 301 297 301 304 302 301 299 286 281 286 279 281 287 280 262 276 277 271 262 264 264 267 266 266 267 260 251 248 236 228 229 234 237 236 228 220 210 216 215 213 212 214 214 207 172 176 168 177 176 173 166 165 169 169 167 172 169 165 170 176 165 160 166 163 164 146
334 328 322 320 318 319 320 319 313 313 312 310 310 304 304 307 307 309 305 302 301 304 302 295 295 293 293 282 280 273 276 280 277 255 270 272 264 261 256 258 259 267 265 264 270 257 245 245 232 234 239 240 235 225 218 212 213 211 205 211 210 217 183 181 187 175 170 163 158 164 158 157 155 156 163 164 164 166 158 148 156 139 143 151 157
330 323 320 317 318 317 315 311 312 310 306 305 306 303 303 303 307 309 306 305 301 296 296 295 291 289 288 281 272 272 259 267 275 258 255 262 259 255 258 253 257 260 266 263 262 264 260 250 243 235 236 238 237 230 224 220 216 205 206 210 211 197 155 170 179 168 166 165 163 159 150 148 152 150 145 149 150 144 126 117 99 109 130 152 143
322 319 316 315 312 312 312 311 306 303 307 312 312 307 305 298 293 296 297 297 298 295 296 296 294 294 294 289 278 273 265 245 262 264 253 254 258 252 251 253 247 256 262 263 259 259 255 253 250 236 238 237 232 229 226 227 221 207 208 206 193 169 170 180 172 169 165 158 152 149 150 142 147 140 136 136 135 124 121 121 104 82 85 107 143
320 314 309 305 306 305 305 304 307 311 309 309 305 300 302 305 299 296 297 301 299 299 296 296 297 295 296 292 289 278 271 263 238 251 251 251 251 254 249 251 251 250 251 258 257 256 255 249 241 229 229 231 228 230 231 228 224 209 201 203 192 179 168 172 171 167 162 157 150 147 144 146 140 128 136 129 121 110 105 100 95 91 68 51 41
313 306 301 299 300 302 302 303 301 302 301 305 303 299 304 307 305 299 302 298 298 299 297 296 294 290 290 292 290 286 273 261 246 238 247 249 251 253 254 252 250 246 246 254 258 255 254 244 237 235 231 225 225 225 231 228 222 211 203 203 190 178 167 172 173 170 163 157 155 144 148 153 144 143 139 130 121 110 101 95 87 84 81 65 62
313 308 307 307 309 310 310 306 306 305 303 305 305 305 304 306 304 302 303 294 287 287 286 288 285 283 285 283 286 286 284 265 260 245 233 244 250 253 255 255 253 251 252 254 251 252 251 248 244 239 232 223 221 223 228 228 224 216 208 201 186 177 176 174 175 169 164 161 156 156 154 157 149 134 123 117 111 106 97 88 84 73 77 77 64
318 317 319 317 317 318 314 309 307 303 302 301 292 286 288 295 294 294 292 285 283 280 282 284 284 282 280 281 281 282 285 284 271 259 237 244 250 253 255 256 256 253 252 256 257 252 248 247 239 230 219 216 219 218 220 219 223 215 206 199 189 185 175 173 172 170 165 162 162 158 150 136 121 124 121 123 122 123 121 118 111 106 105 97 84
317 319 320 318 314 316 310 307 308 307 303 300 294 290 288 284 284 283 280 280 279 277 275 276 279 279 278 280 282 284 284 282 278 268 243 240 246 252 251 255 255 257 256 254 256 254 246 235 224 221 210 213 215 215 216 216 221 213 199 198 198 185 180 180 177 171 165 159 155 142 132 116 118 124 137 134 125 129 130 130 127 122 112 103 105
322 321 319 313 309 310 306 300 299 297 297 296 292 291 285 277 276 276 282 281 283 284 281 278 275 274 280 282 284 284 282 281 277 272 259 245 240 247 244 247 248 234 244 248 246 241 235 218 217 207 210 214 217 218 219 217 216 206 195 192 191 183 175 166 160 162 159 150 132 129 117 127 136 143 139 135 133 137 140 134 131 124 127 128 104
322 317 315 313 309 310 303 301 299 297 295 292 281 273 281 286 282 278 266 265 263 272 281 277 272 271 272 275 278 281 280 278 274 277 250 255 255 254 250 250 244 242 242 243 244 227 212 211 205 206 202 207 211 216 217 215 209 199 188 180 168 168 166 168 168 160 145 135 139 135 133 132 133 139 137 130 138 144 145 132 131 122 144 129 128
320 319 320 315 312 310 306 299 295 291 288 289 293 289 272 270 271 274 283 280 270 261 257 265 270 275 274 266 261 263 269 275 286 285 279 276 264 251 254 256 256 255 252 249 226 213 212 203 200 201 203 202 208 211 213 210 197 181 184 166 164 167 167 164 159 150 148 149 141 137 141 142 143 150 142 137 138 144 144 136 134 142 139 135 126
313 310 313 311 309 305 300 297 293 290 288 292 293 294 298 292 278 273 269 275 281 280 273 268 269 270 268 273 271 264 264 267 274 280 279 275 272 269 259 249 251 254 252 246 222 220 208 203 206 200 205 203 207 209 206 206 193 180 175 171 167 166 163 154 149 143 145 142 138 137 143 147 150 150 144 143 145 144 137 132 128 145 136 133 123
306 305 305 302 303 300 295 296 298 298 296 294 295 296 296 297 296 286 275 269 271 278 282 278 274 273 273 271 271 274 274 271 271 274 276 275 272 268 265 261 257 253 251 238 221 218 213 207 202 204 200 207 210 204 204 203 187 176 167 166 169 165 157 153 148 145 143 142 138 143 150 154 149 144 142 140 138 139 140 144 148 139 131 127 126
293 294 296 297 296 296 295 296 296 295 298 302 303 297 292 292 292 301 298 289 280 273 272 276 279 279 276 275 274 271 272 278 280 276 275 277 275 271 263 258 255 251 249 241 221 215 211 213 211 205 202 207 207 201 201 197 178 171 165 162 158 156 149 145 143 144 148 147 144 150 153 147 139 134 133 140 148 150 147 146 141 134 135 116 109
287 286 292 298 299 298 298 298 299 298 294 292 290 291 291 290 292 292 295 300 302 289 268 263 271 282 287 283 278 276 275 272 272 273 273 273 271 268 262 258 256 251 243 237 224 212 215 213 215 209 208 206 205 195 191 176 162 156 155 149 141 132 134 136 139 140 137 136 143 149 145 142 138 138 139 148 150 147 146 139 139 138 144 144 132
297 298 301 304 302 301 300 298 295 295 296 296 296 295 292 291 289 286 285 288 291 294 300 293 281 275 277 281 282 281 278 274 266 263 266 268 268 267 263 259 255 246 241 238 225 214 213 214 214 211 204 203 193 183 178 164 162 159 156 146 142 140 141 146 144 141 137 139 144 150 147 141 140 139 146 148 150 152 148 146 150 151 142 137 131
309 305 302 301 296 290 291 294 296 296 295 291 290 287 286 285 284 281 281 280 281 285 288 287 290 286 276 270 272 278 279 275 269 265 259 263 264 262 255 247 246 242 237 234 223 216 211 213 210 209 201 196 181 179 174 165 168 160 152 146 146 146 145 144 141 138 138 144 149 143 137 131 138 138 137 139 146 145 142 146 143 139 138 148 155
304 302 299 296 293 292 293 291 288 289 288 288 286 286 285 284 282 281 278 276 280 279 276 286 292 289 275 259 257 268 270 267 265 264 263 262 260 256 246 246 243 247 239 231 220 209 211 207 202 199 192 181 178 172 163 161 152 143 141 145 145 143 147 147 142 142 146 146 147 144 131 135 138 143 143 144 142 142 139 135 132 140 146 147 141
297 297 297 299 299 297 293 291 291 291 289 287 287 287 289 288 290 288 284 281 283 284 282 282 283 285 288 289 276 270 274 270 264 261 261 260 259 249 243 240 242 243 242 228 217 204 201 190 181 186 181 171 168 157 153 146 142 143 142 141 139 140 127 127 129 139 147 143 134 127 123 128 140 141 134 134 139 140 141 144 140 138 139 148 153
299 302 304 306 302 297 294 296 296 298 296 295 295 295 293 294 294 291 289 283 281 282 286 289 286 285 287 292 292 284 274 269 255 250 254 248 242 240 237 240 240 241 235 224 187 185 177 176 169 165 165 162 156 152 146 143 140 140 139 134 129 132 135 138 143 155 148 130 120 124 125 131 131 132 127 126 134 141 141 144 151 151 153 160 163
307 307 304 307 304 298 296 295 296 295 296 296 296 297 297 296 295 294 294 294 291 288 286 285 284 284 290 292 287 284 277 269 266 262 260 253 245 239 236 239 239 234 218 185 176 167 162 156 154 150 152 148 150 144 143 139 143 140 140 139 137 141 148 150 157 152 136 126 129 131 131 132 133 124 125 132 135 141 144 149 155 161 160 152 135
303 302 304 306 305 304 299 298 294 293 295 297 296 295 293 292 292 292 292 290 289 287 281 285 293 296 294 288 284 279 275 271 270 265 258 254 250 244 240 241 236 218 175 162 156 148 147 146 147 147 141 142 142 141 141 140 138 144 144 140 139 140 143 155 145 122 122 123 127 130 127 126 125 130 133 126 132 140 148 143 142 138 130 128 139
304 305 306 303 305 301 299 297 296 295 294 293 292 291 291 291 292 293 292 291 291 291 295 294 289 289 289 286 283 280 275 269 267 266 262 255 252 247 244 239 214 173 160 151 147 145 145 146 147 146 144 142 140 140 138 144 146 144 145 143 142 145 146 140 132 131 129 128 127 129 132 130 128 119 127 132 138 129 127 134 137 130 131 139 139
304 302 303 303 302 300 301 300 300 299 297 295 294 293 292 292 291 291 288 286 288 291 292 291 292 290 286 284 280 278 273 271 267 263 261 257 253 246 235 201 172 160 150 147 146 147 149 151 149 151 152 155 153 152 155 154 153 148 148 149 149 144 137 134 130 130 127 123 124 127 129 131 131 137 142 137 134 129 130 129 129 135 138 137 140
306 307 303 301 300 299 296 296 297 297 296 296 296 295 294 293 291 288 287 287 288 288 287 286 284 285 284 285 282 278 271 270 267 264 261 254 238 211 183 152 147 139 138 136 136 137 139 141 135 120 112 127 138 144 150 156 155 153 144 142 143 141 138 139 142 144 139 132 133 134 137 140 135 134 133 134 134 129 128 128 128 135 131 131 132
310 313 315 312 309 306 303 300 296 293 294 295 292 291 291 291 289 287 286 284 288 289 289 287 286 285 286 286 283 277 275 271 270 266 257 237 195 143 128 134 146 144 138 133 133 133 131 133 131 129 126 110 103 113 119 127 129 129 141 146 146 149 155 153 147 138 130 130 136 138 143 144 140 140 135 141 136 132 136 142 135 127 123 136 144
318 318 320 320 317 314 312 309 303 301 298 297 295 295 292 289 285 288 290 291 289 288 289 287 287 287 286 285 283 279 277 284 292 319 19 24 40 44 38 64 66 83 101 115 119 116 120 127 132 134 132 126 118 107 100 94 101 104 107 97 114 126 129 111 114 127 132 136 143 147 145 133 136 142 145 138 138 138 132 136 142 146 149 147 155
318 318 323 324 325 319 317 316 314 314 313 313 312 311 309 305 303 300 297 293 292 289 285 286 291 290 291 287 288 291 307 322 350 27 33 45 45 42 51 67 74 70 79 85 93 101 102 99 106 119 124 122 118 109 104 101 96 91 93 107 116 120 121 127 126 125 132 135 134 136 137 136 137 132 140 140 138 139 136 142 151 153 151 149 147
320 321 324 326 327 327 323 321 318 319 316 313 313 312 311 312 308 305 305 301 297 295 296 295 294 297 298 306 333 348 6 10 29 37 40 36 43 37 44 64 75 82 88 89 90 94 99 108 113 117 117 117 114 113 110 108 103 99 96 102 115 125 125 124 120 124 128 133 133 139 141 138 128 133 138 144 143 142 139 142 137 136 142 143 134
321 327 327 331 332 330 327 324 324 322 318 318 316 314 314 315 315 314 312 310 309 308 311 317 319 325 335 348 355 4 13 24 29 32 44 43 60 74 61 61 66 69 75 86 92 91 94 98 103 113 116 113 112 108 106 111 110 103 107 104 118 124 126 124 122 127 126 123 113 115 111 112 132 140 142 139 142 142 135 139 143 140 136 136 138
323 324 327 329 330 328 325 322 321 321 322 322 320 318 319 319 320 322 322 321 322 326 331 335 336 339 339 345 356 4 12 21 33 39 42 47 58 57 55 64 60 56 59 74 72 83 84 93 99 105 106 107 106 104 103 98 95 105 104 115 124 120 114 111 112 122 126 105 120 117 122 117 116 120 122 136 140 139 139 147 148 146 140 146 151
322 323 323 324 325 327 327 326 325 327 328 328 329 329 327 327 325 323 324 327 328 329 332 336 340 344 351 349 357 3 13 28 37 39 40 39 48 56 56 56 58 67 66 66 67 69 80 86 94 100 98 98 96 99 98 88 81 103 114 117 115 115 116 113 112 110 114 117 114 118 121 129 133 131 132 129 134 140 147 141 146 147 146 145 147